Location: Wellington
(41.3000°S, 174.7830°E)
Time: 22:43:43
(UTC+12:00)

Daily predictions for brighter satellites

Satellite Brightness Start Highest point End
(mag) Time Altitude Azimuth Time Altitude Azimuth Time Altitude Azimuth
Cosmos 1844 Rocket 3.5 17:31:36 10° SSW 17:37:10 59° WNW 17:42:38 10° N
Cosmos 2278 Rocket 3.1 17:33:56 10° S 17:38:46 27° SE 17:43:34 10° ENE
COSMOS 2428 2.7 17:39:42 10° NNW 17:45:25 78° ENE 17:51:10 10° SSE
Cosmos 1354 Rocket 4.3 17:43:12 10° S 17:48:18 44° ESE 17:53:19 10° NE
Cosmos 2360 Rocket 3.9 17:46:28 10° WNW 17:51:27 32° WSW 17:56:31 10° S
Cosmos 2219 Rocket 2.4 17:45:55 10° NNW 17:51:33 78° WSW 17:57:12 10° SSE
Lacrosse 5 3.4 17:48:07 10° SSW 17:51:51 20° SSE 17:55:31 10° ESE
Cosmos 1953 Rocket 3.8 17:48:51 10° N 17:53:20 81° W 17:57:54 10° S
USA 276 2.1 17:50:30 10° SW 17:53:44 68° SSE 17:56:55 10° ENE
Nadezhda 4 Rocket 4.1 17:47:43 10° N 17:53:52 89° W 18:00:10 10° S
Cosmos 1092 Rocket 4.1 17:48:44 10° NNE 17:54:46 56° E 18:00:56 10° SSE
IRIDIUM 114 4.5 17:53:21 10° S 17:58:34 54° E 18:03:42 10° NNE
Cosmos 2058 3.0 17:55:56 10° N 17:59:57 54° E 18:04:05 10° SSE
Meteor 2-8 Rocket 4.4 17:54:45 10° S 18:01:01 71° E 18:07:10 10° NNE
SMAP 3.9 17:57:50 10° SE 18:02:00 30° E 18:06:07 10° NNE
Atlas Centaur 2 3.7 17:58:26 10° NW 18:03:01 29° N 18:08:36 10° ENE
Cosmos 2026 Rocket 4.2 17:58:26 10° NNE 18:04:37 53° E 18:10:51 10° SSE
COSMO-SKYMED 1 3.9 18:00:27 10° N 18:04:39 46° W 18:08:56 10° SSW
CSL-04 DEB 4.3 18:01:47 10° NNE 18:05:42 70° ESE 18:09:41 10° S
CZ-2C R/B 2.8 18:01:02 10° NNE 18:06:37 65° ESE 18:12:13 10° S
H-2A R/B 3.9 18:02:51 10° NNW 18:06:41 35° W 18:10:31 10° SSW
CENTAUR R/B 4.3 17:59:43 10° WNW 18:06:41 33° SW 18:12:46 10° SSE
IRIDIUM 103 4.3 18:02:25 10° S 18:07:43 67° E 18:12:56 10° NNE
DMSP B5D1-3 4.5 18:03:36 10° NNE 18:08:42 69° ESE 18:13:54 10° S
USA 234 3.3 18:03:14 10° SE 18:09:53 87° SW 18:16:29 10° NW
Cosmos 1825 2.1 18:06:12 10° N 18:09:59 86° E 18:13:50 10° S
Cosmos 1408 3.8 18:09:55 10° NNW 18:13:31 45° W 18:17:09 10° S
Cosmos 1842 Rocket 3.6 18:10:06 10° S 18:14:33 60° E 18:18:59 10° NNE
Cosmos 1980 3.9 18:10:09 10° N 18:15:39 53° ENE 18:21:13 10° SSE
Cosmos 405 Rocket 2.6 18:12:00 10° N 18:15:41 61° E 18:19:30 10° SSE
NOAA 6 4.1 18:14:01 10° SSE 18:19:09 57° E 18:24:13 10° N
Envisat 3.6 18:14:10 10° S 18:19:16 61° WSW 18:24:18 10° NNW
Radarsat Rocket 4.3 18:15:59 10° SSE 18:21:44 41° E 18:27:12 10° N
Cosmos 1356 3.4 18:21:55 10° N 18:25:21 85° W 18:28:50 10° S
IRIDIUM 106 4.4 18:20:44 10° S 18:26:04 84° W 18:31:19 10° N
Cosmos 1437 Rocket 3.0 18:24:01 10° S 18:27:42 43° ESE 18:31:19 10° NNE
SL-16 R/B 3.4 18:23:34 10° NNE 18:27:42 21° E 18:28:38 20° E
Cosmos 2221 2.5 18:25:46 10° S 18:30:08 89° W 18:34:26 10° N
CZ-4B DEB 4.2 18:24:46 10° SSE 18:30:17 65° ENE 18:35:43 10° N
CZ-4B R/B 3.1 18:27:37 10° NNW 18:30:25 33° W 18:33:18 10° SSW
Cosmos 1606 2.8 18:30:59 10° S 18:34:45 50° E 18:38:27 10° NNE
Cosmos 1689 Rocket 1.9 18:32:46 10° NNE 18:35:36 60° ESE 18:38:30 10° S
SL-8 R/B 3.7 18:30:59 10° WNW 18:35:52 86° SSW 18:38:39 26° ESE
ATLAS 3B R/B 3.0 18:30:41 10° NW 18:38:14 84° WSW 18:45:30 11° SSE
USA 102 3.8 18:31:06 10° NE 18:28:54 - NE 18:38:00 44° E
Meteor 2-15 Rocket 4.4 18:35:56 10° S 18:42:08 87° E 18:48:14 10° N
Cosmos 2333 Rocket 4.1 18:39:24 10° WNW 18:44:11 27° SW 18:49:01 10° S
Cosmos 1900 4.4 18:43:59 10° SSW 18:49:03 58° SE 18:52:13 22° NE
Cosmos 1076 Rocket 3.5 18:45:40 10° N 18:49:57 82° W 18:54:21 10° S
Cosmos 1461 3.5 18:46:00 10° SSW 18:50:03 37° SE 18:50:14 37° ESE
Cosmos 1553 Rocket 3.8 18:46:13 10° S 18:52:21 67° E 18:58:25 10° NNE
Cosmos 1777 Rocket 3.9 18:48:08 10° SSW 18:53:29 79° ESE 18:58:45 10° NNE
H-2A R/B 4.1 19:00:07 11° NNE 19:00:07 11° NNE 19:00:23 10° NNE
Genesis I 4.2 18:53:06 10° NW 18:56:54 43° SW 18:59:04 22° S
Cosmos 2237 Rocket 2.4 18:52:17 10° NNW 18:57:57 75° WSW 19:03:17 12° SSE
Cosmos 1809 Rocket 4.4 18:56:09 10° N 19:02:21 75° E 19:08:36 10° SSE
CZ-2C R/B 2.7 18:59:03 18° SSE 19:02:36 66° ENE 19:07:21 10° N
CORIOLIS 4.2 18:58:14 10° SSE 19:03:46 86° WSW 19:09:15 10° NNW
Cosmos 2151 2.8 18:59:35 10° N 19:03:48 77° E 19:05:43 32° SSE
ERS-2 2.2 19:02:29 10° N 19:06:08 76° WNW 19:09:53 10° SSW
CZ-2D R/B 4.4 19:08:10 32° NNE 19:08:10 32° NNE 19:10:26 10° N
Cosmos 1417 Rocket 4.4 19:00:37 10° S 19:07:05 74° E 19:13:24 10° NNE
SJ 16-02 2.2 19:03:31 10° S 19:06:30 35° SSE 19:06:30 35° SSE
Okean O Rocket 1.5 19:06:03 36° SSE 19:07:52 73° ENE 19:12:21 10° N
BREEZE-M DEB 4.0 19:07:43 10° W 19:09:25 21° SW 19:09:25 21° SW
ATLAS CENTAUR R/B 3.6 19:09:39 10° S 19:10:37 14° S 19:10:37 14° S
Cosmos 1633 3.0 19:09:37 10° NNW 19:13:09 59° W 19:14:15 39° SSW
Cosmos 1943 Rocket 3.5 19:12:50 10° S 19:15:55 25° SSE 19:15:55 25° SSE
Cosmos 1655 Rocket 3.9 19:14:21 10° N 19:20:39 75° E 19:27:05 10° S
Cosmos 2278 Rocket 3.2 19:17:36 10° SW 19:23:05 47° WNW 19:28:30 10° N
Cosmos 1939 Rocket 3.8 19:23:03 18° S 19:25:53 49° WSW 19:29:55 10° NNW
Cosmos 2292 Rocket 4.4 19:22:21 10° NNW 19:26:20 54° WSW 19:31:42 10° S
Meteor 2-3 Rocket 3.6 19:20:48 10° N 19:26:25 83° E 19:29:42 27° SSE
Cosmos 2369 Rocket 4.2 19:24:49 10° S 19:25:49 14° S 19:25:49 14° S
CZ-4B R/B 3.3 19:24:21 10° S 19:29:42 70° WSW 19:34:59 10° NNW
H-2A R/B 3.2 19:33:35 44° NW 19:33:35 44° NW 19:36:26 10° NNW
Meteor 2-16 Rocket 4.3 19:26:44 10° N 19:32:47 70° E 19:33:55 57° SE
Lacrosse 5 2.3 19:30:36 10° SW 19:34:45 52° S 19:34:45 52° S
Meteor 2-21 Rocket 4.4 19:33:02 10° N 19:39:17 87° W 19:45:37 10° S
Atlas Centaur 2 4.0 19:46:30 10° WNW 19:51:34 26° N 19:52:48 25° N
USA 234 4.4 19:50:01 27° SSE 19:52:21 34° SSW 19:58:08 10° W
SL-16 R/B 2.9 20:05:48 10° NW 20:10:35 51° W 20:10:35 51° W
